DW4130 Weather Reports


time (UTC)temp
C
wind
direction
speed
KPH
gust
KPH
rain 1hr
cm
rain 24hr
cm
rain mn
cm
humidity
%
barometer
mb
20260505200003 16 175 0.0 1.6 0.00 0.00 0.00 73 1008.8
20260505195503 16 175 0.0 1.6 0.00 0.00 0.00 74 1008.9
20260505195003 16 175 0.0 1.6 0.00 0.00 0.00 75 1008.9
20260505194502 16 175 0.0 3.2 0.00 0.00 0.00 73 1008.9
20260505194004 16 175 0.0 4.8 0.00 0.00 0.00 72 1009.0
20260505193503 16 235 0.0 3.2 0.00 0.00 0.00 76 1009.0
20260505193003 16 289 0.0 3.2 0.00 0.00 0.00 75 1009.0
20260505192503 16 296 0.0 4.8 0.00 0.00 0.00 76 1009.0
20260505192003 16 303 0.0 3.2 0.00 0.00 0.00 76 1009.0
20260505191003 15 276 1.6 3.2 0.00 0.00 0.00 77 1009.0
20260505190503 15 276 0.0 4.8 0.00 0.00 0.00 77 1009.0
20260505190004 15 274 0.0 3.2 0.00 0.00 0.00 76 1009.0
20260505185503 15 275 0.0 1.6 0.00 0.00 0.00 76 1009.0
20260505185003 15 275 0.0 3.2 0.00 0.00 0.00 76 1009.0
20260505184003 15 277 0.0 3.2 0.00 0.00 0.00 77 1009.0
20260505183503 15 284 0.0 3.2 0.00 0.00 0.00 77 1009.0
20260505183004 15 292 1.6 4.8 0.00 0.00 0.00 78 1009.0
20260505182503 15 83 0.0 1.6 0.00 0.00 0.00 77 1009.0
20260505182003 15 84 0.0 0.0 0.00 0.00 0.00 79 1009.0
20260505181504 15 84 0.0 0.0 0.00 0.00 0.00 78 1009.0
20260505181003 15 84 0.0 3.2 0.00 0.00 0.00 78 1008.9
20260505180504 15 84 0.0 3.2 0.00 0.00 0.00 79 1009.0
20260505180003 14 84 0.0 0.0 0.00 0.00 0.00 80 1008.9
20260505175503 14 84 0.0 1.6 0.00 0.00 0.00 79 1008.9
20260505175004 14 83 0.0 3.2 0.00 0.00 0.00 79 1008.9
20260505174503 14 84 0.0 1.6 0.00 0.00 0.00 79 1008.9
20260505174003 14 78 0.0 3.2 0.00 0.00 0.00 80 1008.9
20260505173003 14 100 0.0 1.6 0.00 0.00 0.00 80 1008.8
20260505172504 14 100 0.0 3.2 0.00 0.00 0.00 81 1008.8
20260505172004 14 100 0.0 3.2 0.00 0.00 0.00 80 1008.7
20260505171504 14 178 0.0 1.6 0.00 0.00 0.00 80 1008.7
20260505171004 14 178 0.0 1.6 0.00 0.00 0.00 80 1008.8
20260505170503 14 178 0.0 3.2 0.00 0.00 0.00 81 1008.7
20260505165503 13 178 0.0 1.6 0.00 0.00 0.00 82 1008.7
20260505165003 13 178 0.0 3.2 0.00 0.00 0.00 81 1008.6
20260505164504 13 178 0.0 3.2 0.00 0.00 0.00 81 1008.7
20260505164003 13 58 0.0 3.2 0.00 0.00 0.00 83 1008.6
20260505163503 13 348 0.0 1.6 0.00 0.00 0.00 82 1008.6
20260505162504 13 299 0.0 0.0 0.00 0.00 0.00 83 1008.5
20260505162004 13 338 0.0 3.2 0.00 0.00 0.00 83 1008.5
20260505161504 13 201 0.0 3.2 0.00 0.00 0.00 83 1008.4
20260505161004 13 211 0.0 3.2 0.00 0.00 0.00 83 1008.5
20260505152503 13 254 0.0 1.6 0.00 0.00 0.00 83 1008.4
20260505152002 13 254 0.0 0.0 0.00 0.00 0.00 84 1008.4
20260505151503 13 254 0.0 3.2 0.00 0.00 0.00 84 1008.4
20260505151003 13 254 0.0 3.2 0.00 0.00 0.00 84 1008.3
20260505150502 13 254 0.0 1.6 0.00 0.00 0.00 84 1008.2
20260505140504 12 292 0.0 3.2 0.00 0.00 0.00 84 1007.7
20260505125005 12 292 0.0 0.0 0.00 0.00 0.00 86 1007.3
20260505124503 12 292 0.0 0.0 0.00 0.00 0.00 86 1007.3
20260505124004 12 292 0.0 0.0 0.00 0.00 0.00 86 1007.2
20260505123004 12 292 0.0 0.0 0.00 0.00 0.00 86 1007.2
20260505122003 12 292 0.0 0.0 0.00 0.00 0.00 86 1007.2
20260505121504 12 292 0.0 0.0 0.00 0.00 0.00 86 1007.2
20260505121003 12 292 0.0 0.0 0.00 0.00 0.00 86 1007.2
20260505120504 12 292 0.0 0.0 0.00 0.00 0.00 86 1007.1
20260505115004 12 292 0.0 0.0 0.00 0.00 0.00 86 1007.1
20260505114504 12 292 0.0 0.0 0.00 0.00 0.00 86 1007.1
20260505114004 12 292 0.0 0.0 0.00 0.00 0.00 86 1007.1
20260505113505 12 292 0.0 0.0 0.00 0.00 0.00 86 1007.1
20260505113004 12 292 0.0 0.0 0.00 0.00 0.00 85 1007.0
20260505112504 12 291 0.0 0.0 0.00 0.00 0.00 85 1007.1
20260505112004 12 292 0.0 0.0 0.00 0.00 0.00 85 1007.1
20260505111503 12 292 0.0 0.0 0.00 0.00 0.00 85 1007.1
20260505111002 12 292 0.0 0.0 0.00 0.00 0.00 85 1007.1
20260505110502 12 292 0.0 0.0 0.00 0.00 0.00 85 1007.0
20260505102004 12 292 0.0 0.0 0.00 0.00 0.00 85 1006.7
20260505101002 12 292 0.0 0.0 0.00 0.00 0.00 85 1006.7
20260505100503 12 292 0.0 0.0 0.00 0.00 0.00 85 1006.7
20260505100002 12 292 0.0 3.2 0.00 0.00 0.00 85 1006.6
20260505095502 12 292 0.0 3.2 0.00 0.00 0.00 85 1006.7
20260505094502 12 292 0.0 1.6 0.00 0.00 0.00 84 1006.5
20260505094002 12 292 0.0 3.2 0.00 0.00 0.00 85 1006.6
20260505093504 12 292 0.0 1.6 0.00 0.00 0.00 85 1006.6
20260505093003 12 292 0.0 0.0 0.00 0.00 0.00 84 1006.5
20260505092503 12 292 0.0 3.2 0.00 0.00 0.00 84 1006.5
20260505092004 12 292 0.0 1.6 0.00 0.00 0.00 84 1006.5
20260505091502 12 292 0.0 1.6 0.00 0.00 0.00 83 1006.4
20260505090503 12 290 0.0 0.0 0.00 0.00 0.00 83 1006.3
20260505085004 13 292 0.0 0.0 0.00 0.00 0.00 83 1006.2
20260505084503 13 292 0.0 0.0 0.00 0.00 0.00 82 1006.2
20260505083503 13 292 1.6 4.8 0.00 0.00 0.00 82 1006.2
20260505083003 13 314 0.0 4.8 0.00 0.00 0.00 82 1006.1
20260505082503 13 315 0.0 3.2 0.00 0.00 0.00 83 1006.1
20260505082003 13 315 1.6 4.8 0.00 0.00 0.00 82 1006.1
20260505081004 13 316 0.0 1.6 0.00 0.00 0.00 82 1006.1
20260505080503 13 316 0.0 0.0 0.00 0.00 0.00 82 1006.0
20260505075004 13 316 0.0 3.2 0.00 0.00 0.00 81 1006.0
20260505074504 13 316 0.0 3.2 0.00 0.00 0.00 80 1006.0
20260505074004 13 316 0.0 3.2 0.00 0.00 0.00 80 1005.8
20260505073504 13 316 0.0 0.0 0.00 0.00 0.00 80 1005.8
20260505073004 13 316 0.0 3.2 0.00 0.00 0.00 79 1005.6
20260505072004 13 316 0.0 3.2 0.00 0.00 0.00 78 1005.5
20260505071503 13 316 0.0 3.2 0.00 0.00 0.00 78 1005.5
20260505071004 14 316 0.0 3.2 0.00 0.00 0.00 78 1005.4
20260505070503 14 316 0.0 1.6 0.00 0.00 0.00 77 1005.4
20260505070004 14 316 0.0 1.6 0.00 0.00 0.00 77 1005.4
20260505065504 14 316 0.0 3.2 0.00 0.00 0.00 76 1005.2
20260505065003 15 316 0.0 3.2 0.00 0.00 0.00 76 1005.2
20260505064504 15 316 0.0 0.0 0.00 0.00 0.00 76 1005.0
20260505064004 15 316 0.0 3.2 0.00 0.00 0.00 75 1005.0
20260505063502 15 316 0.0 3.2 0.00 0.00 0.00 75 1005.0
20260505063002 15 316 0.0 0.0 0.00 0.00 0.00 74 1004.9
20260505062502 15 316 0.0 3.2 0.00 0.00 0.00 74 1004.9
20260505062003 15 312 1.6 4.8 0.00 0.00 0.00 74 1004.8
20260505061502 15 302 3.2 8.0 0.00 0.00 0.00 73 1004.7
20260505061002 16 300 3.2 4.8 0.00 0.00 0.00 73 1004.6
20260505060502 16 279 0.0 3.2 0.00 0.00 0.00 72 1004.5
20260505060002 16 279 1.6 4.8 0.00 0.00 0.00 72 1004.5
20260505055003 16 292 3.2 8.0 0.00 0.00 0.00 71 1004.4
20260505054502 16 289 1.6 3.2 0.00 0.00 0.00 70 1004.4
20260505054003 17 289 1.6 4.8 0.00 0.00 0.00 70 1004.4
20260505053502 17 288 0.0 0.0 0.00 0.00 0.00 69 1004.4
20260505052503 17 275 1.6 4.8 0.00 0.00 0.00 68 1004.4
20260505052002 17 271 1.6 8.0 0.00 0.00 0.00 68 1004.3
20260505051503 18 253 0.0 3.2 0.00 0.00 0.00 67 1004.2
20260505051003 18 311 1.6 4.8 0.00 0.00 0.00 67 1004.2
20260505050503 18 286 1.6 4.8 0.00 0.00 0.00 67 1004.1
20260505041503 19 264 0.0 3.2 0.00 0.00 0.00 65 1003.5
20260505041003 19 264 0.0 3.2 0.00 0.00 0.00 65 1003.4
20260505040503 20 262 1.6 4.8 0.00 0.00 0.00 65 1003.3
20260505040004 20 262 0.0 4.8 0.00 0.00 0.00 68 1003.2
20260505035504 20 262 0.0 3.2 0.00 0.00 0.00 68 1003.1
20260505035003 20 262 0.0 0.0 0.00 0.00 0.00 69 1003.1
20260505034503 20 262 0.0 1.6 0.00 0.00 0.00 69 1003.0
20260505034003 20 262 0.0 0.0 0.00 0.00 0.00 69 1002.9
20260505033504 20 262 0.0 0.0 0.00 0.00 0.00 68 1002.8
20260505033003 21 262 0.0 0.0 0.00 0.00 0.00 67 1002.7
20260505032003 21 262 0.0 0.0 0.00 0.00 0.00 66 1002.5
20260505030504 21 262 0.0 0.0 0.00 0.00 0.00 66 1002.2
20260505030003 21 262 0.0 0.0 0.00 0.00 0.00 65 1002.2
20260505025504 21 262 0.0 3.2 0.00 0.00 0.00 65 1002.2
20260505025004 21 261 1.6 3.2 0.00 0.00 0.00 65 1002.1
20260505024503 22 262 0.0 1.6 0.00 0.00 0.00 64 1002.1
20260505024003 22 262 0.0 3.2 0.00 0.00 0.00 64 1002.0
20260505023504 22 262 0.0 1.6 0.00 0.00 0.00 63 1002.0
20260505023003 22 262 1.6 4.8 0.00 0.00 0.00 63 1002.0
20260505022504 22 256 0.0 4.8 0.00 0.00 0.00 62 1002.0
20260505022004 22 219 0.0 4.8 0.00 0.00 0.00 62 1002.0
20260505021504 22 240 0.0 3.2 0.00 0.00 0.00 62 1002.0
20260505021004 22 239 1.6 4.8 0.00 0.00 0.00 62 1002.0
20260505020503 22 291 0.0 3.2 0.00 0.00 0.00 62 1002.0
20260505015003 22 195 0.0 3.2 0.00 0.00 0.00 60 1002.0
20260505014503 22 220 1.6 4.8 0.00 0.00 0.00 60 1002.0
20260505014002 22 219 1.6 3.2 0.00 0.00 0.00 60 1002.1
20260505013503 22 194 0.0 3.2 0.00 0.00 0.00 60 1002.1
20260505012502 22 336 0.0 3.2 0.00 0.00 0.00 60 1002.2
20260505012003 22 234 1.6 3.2 0.00 0.00 0.00 60 1002.2
20260505011003 23 200 1.6 4.8 0.00 0.00 0.00 58 1002.3
20260505010502 23 257 0.0 4.8 0.00 0.00 0.00 59 1002.3
20260505010004 23 190 0.0 3.2 0.00 0.00 0.00 58 1002.3
20260505005503 23 188 1.6 4.8 0.00 0.00 0.00 58 1002.4
20260505005004 23 272 1.6 4.8 0.00 0.00 0.00 58 1002.3
20260505004503 23 229 1.6 3.2 0.00 0.00 0.00 58 1002.4
20260505004003 23 229 0.0 3.2 0.00 0.00 0.00 58 1002.4
20260505003004 22 337 0.0 4.8 0.00 0.00 0.00 57 1002.5
20260505002503 23 300 3.2 8.0 0.00 0.00 0.00 58 1002.6
20260505002003 22 234 0.0 3.2 0.00 0.00 0.00 57 1002.5
20260505001504 22 209 0.0 3.2 0.00 0.00 0.00 57 1002.6
20260505001004 22 301 0.0 4.8 0.00 0.00 0.00 58 1002.6
20260505000502 22 282 1.6 4.8 0.00 0.00 0.00 57 1002.7
20260505000003 22 293 1.6 8.0 0.00 0.00 0.00 58 1002.7
20260504234503 22 199 0.0 4.8 0.00 0.00 0.00 59 1002.8
20260504234004 22 202 0.0 4.8 0.00 0.00 0.00 58 1002.8
20260504233503 22 292 1.6 4.8 0.00 0.00 0.00 59 1002.8
20260504233004 22 126 0.0 3.2 0.00 0.00 0.00 59 1002.8
20260504232503 22 165 1.6 4.8 0.00 0.00 0.00 59 1002.8
20260504232003 22 180 1.6 4.8 0.00 0.00 0.00 59 1002.9
20260504231504 22 338 0.0 4.8 0.00 0.00 0.00 59 1002.9
20260504231004 22 217 1.6 4.8 0.00 0.00 0.00 59 1002.9
20260504230503 22 170 0.0 9.7 0.00 0.00 0.00 59 1002.9
20260504225003 22 174 0.0 3.2 0.00 0.00 0.00 58 1003.2
20260504224504 22 219 1.6 4.8 0.00 0.00 0.00 60 1003.3
20260504224004 22 177 0.0 4.8 0.00 0.00 0.00 59 1003.2
20260504223503 22 203 0.0 8.0 0.00 0.00 0.00 58 1003.4
20260504222503 21 292 0.0 3.2 0.00 0.00 0.00 60 1003.5
20260504222004 21 281 1.6 4.8 0.00 0.00 0.00 59 1003.6
20260504221503 21 292 0.0 4.8 0.00 0.00 0.00 60 1003.6
20260504221003 21 169 1.6 4.8 0.00 0.00 0.00 59 1003.7
20260504220503 21 74 1.6 4.8 0.00 0.00 0.00 59 1003.7
20260504220004 21 188 0.0 4.8 0.00 0.00 0.00 61 1003.8
20260504215504 21 280 0.0 3.2 0.00 0.00 0.00 61 1003.8
20260504215004 21 318 1.6 3.2 0.00 0.00 0.00 60 1003.8
20260504214503 21 65 0.0 3.2 0.00 0.00 0.00 63 1003.8
20260504214003 21 67 1.6 3.2 0.00 0.00 0.00 63 1003.9
20260504213503 21 85 1.6 4.8 0.00 0.00 0.00 63 1004.1
20260504212502 20 284 1.6 9.7 0.00 0.00 0.00 62 1004.2
20260504212003 21 251 1.6 8.0 0.00 0.00 0.00 64 1004.2
20260504211503 20 300 3.2 8.0 0.00 0.00 0.00 64 1004.3
20260504211003 20 241 1.6 8.0 0.00 0.00 0.00 63 1004.4
20260504210003 20 290 3.2 9.7 0.00 0.00 0.00 65 1004.5
20260504205002 19 264 1.6 4.8 0.00 0.00 0.00 66 1004.7
20260504204503 19 106 0.0 4.8 0.00 0.00 0.00 66 1004.8
20260504204002 19 297 3.2 4.8 0.00 0.00 0.00 66 1004.9
20260504203503 19 277 1.6 4.8 0.00 0.00 0.00 65 1005.0
20260504202503 18 219 0.0 3.2 0.00 0.00 0.00 66 1005.0
20260504202003 19 219 0.0 3.2 0.00 0.00 0.00 65 1005.0
20260504201503 18 216 0.0 8.0 0.00 0.00 0.00 68 1005.1
20260504201003 19 277 1.6 4.8 0.00 0.00 0.00 67 1005.1